Date String (YYYY-MM-DD hh:mm:ss) UTC,Instrument flags,Ambient pressure (hPa),Sample flow (lpm),Bypass flow (lpm),Sample temperature (°C),Ambient temperature (°C),ASC tube jacket temperature (°C),LED temperature (°C),Box temperature (°C),Sample RH (%),Span deviation,Mass concentration (μg/m³),Mass concentration (μg/m³),Mass concentration (μg/m³)
DateTimeUTC,F1_M11,P_M11,Q1_M11,Q2_M11,T1_M11,T2_M11,T3_M11,T4_M11,T5_M11,U1_M11,ZSPAN_M11,X0_M11,X2_M11,X1_M11
2022-07-08 11:00:00,,0833.0,5.00,0.00,30.1,28.9,00.0,38.9,32.0,28.3,0000.0,0009.37,0003.96,0003.44
2022-07-08 11:01:00,,0833.0,5.00,0.00,30.1,28.9,00.0,38.9,32.0,28.2,0000.0,0009.65,0003.95,0003.45
2022-07-08 11:02:00,,0833.0,5.00,0.00,30.1,28.9,00.0,38.9,32.0,28.2,0000.0,0009.59,0003.93,0003.45
2022-07-08 11:03:00,,0833.0,4.99,0.00,30.1,29.0,00.0,38.9,32.0,28.2,0000.0,0009.34,0003.90,0003.44
2022-07-08 11:04:00,,0833.0,4.99,0.00,30.1,29.0,00.0,38.9,32.0,28.1,0000.0,0008.99,0003.90,0003.46
2022-07-08 11:05:00,,0833.1,5.00,0.00,30.2,29.0,00.0,38.9,32.1,28.1,0000.0,0008.83,0003.88,0003.46
2022-07-08 11:06:00,,0833.1,5.00,0.00,30.2,29.0,00.0,39.0,32.1,28.0,0000.0,0008.74,0003.85,0003.46
2022-07-08 11:07:00,,0833.1,5.00,0.00,30.2,29.0,00.0,39.0,32.1,28.1,0000.0,0008.82,0003.85,0003.46
2022-07-08 11:08:00,,0833.1,5.01,0.00,30.2,29.0,00.0,39.0,32.1,28.1,0000.0,0008.54,0003.84,0003.47
2022-07-08 11:09:00,,0833.0,5.00,0.00,30.2,29.0,00.0,39.0,32.1,28.2,0000.0,0008.50,0003.89,0003.48
2022-07-08 11:10:00,,0833.0,4.99,0.00,30.2,29.1,00.0,39.0,32.1,28.2,0000.0,0008.52,0003.89,0003.48
2022-07-08 11:11:00,,0833.1,5.01,0.00,30.2,29.1,00.0,39.0,32.1,28.2,0000.0,0008.25,0003.89,0003.48
2022-07-08 11:12:00,,0833.1,5.00,0.00,30.2,29.1,00.0,39.0,32.1,28.2,0000.0,0007.99,0003.90,0003.48
2022-07-08 11:13:00,,0833.1,5.00,0.00,30.2,29.1,00.0,39.0,32.1,28.2,0000.0,0008.08,0003.94,0003.50
2022-07-08 11:14:00,,0833.1,5.00,0.00,30.2,29.1,00.0,39.0,32.1,28.1,0000.0,0008.09,0003.93,0003.50
2022-07-08 11:15:00,,0833.1,5.00,0.00,30.3,29.1,00.0,39.1,32.1,28.1,0000.0,0008.18,0003.95,0003.50
2022-07-08 11:16:00,,0833.1,5.00,0.00,30.3,29.1,00.0,39.1,32.2,28.1,0000.0,0008.64,0003.96,0003.50
2022-07-08 11:17:00,,0833.1,4.99,0.00,30.3,29.1,00.0,39.1,32.2,28.1,0000.0,0009.04,0003.98,0003.50
2022-07-08 11:18:00,,0833.0,5.00,0.00,30.3,29.2,00.0,39.1,32.2,28.0,0000.0,0008.56,0003.99,0003.49
2022-07-08 11:19:00,,0833.0,5.00,0.00,30.3,29.2,00.0,39.1,32.2,28.1,0000.0,0008.53,0003.97,0003.48
2022-07-08 11:20:00,,0833.0,5.00,0.00,30.3,29.2,00.0,39.1,32.2,28.0,0000.0,0008.36,0003.92,0003.46
2022-07-08 11:21:00,,0833.0,5.00,0.00,30.3,29.2,00.0,39.1,32.2,28.1,0000.0,0007.94,0003.92,0003.45
2022-07-08 11:22:00,,0833.0,5.00,0.00,30.3,29.2,00.0,39.1,32.2,28.1,0000.0,0008.03,0003.91,0003.43
2022-07-08 11:23:00,,0832.9,5.00,0.00,30.3,29.2,00.0,39.1,32.2,28.1,0000.0,0008.72,0003.86,0003.41
2022-07-08 11:24:00,,0832.9,4.99,0.00,30.3,29.2,00.0,39.2,32.2,28.2,0000.0,0008.80,0003.83,0003.39
2022-07-08 11:25:00,,0832.8,5.02,0.00,30.4,29.2,00.0,39.2,32.2,28.2,0000.0,0008.83,0003.84,0003.38
2022-07-08 11:26:00,,0832.8,5.00,0.00,30.4,29.2,00.0,39.2,32.2,28.2,0000.0,0008.86,0003.83,0003.36
2022-07-08 11:27:00,,0832.8,5.00,0.00,30.4,29.2,00.0,39.2,32.2,28.2,0000.0,0008.52,0003.85,0003.36
2022-07-08 11:28:00,,0832.8,4.99,0.00,30.4,29.2,00.0,39.2,32.2,28.2,0000.0,0008.18,0003.86,0003.35
2022-07-08 11:29:00,,0832.8,4.99,0.00,30.4,29.2,00.0,39.2,32.3,28.3,0000.0,0008.20,0003.87,0003.36
2022-07-08 11:30:00,,0832.8,5.00,0.00,30.4,29.2,00.0,39.2,32.3,28.4,0000.0,0008.17,0003.86,0003.37
2022-07-08 11:31:00,,0832.8,5.01,0.00,30.4,29.3,00.0,39.2,32.3,28.6,0000.0,0008.20,0003.87,0003.38
2022-07-08 11:32:00,,0832.9,5.00,0.00,30.4,29.3,00.0,39.2,32.3,28.7,0000.0,0008.27,0003.91,0003.39
2022-07-08 11:33:00,,0832.9,5.00,0.00,30.4,29.3,00.0,39.2,32.3,28.5,0000.0,0008.28,0003.94,0003.41
2022-07-08 11:34:00,,0833.0,5.00,0.00,30.4,29.3,00.0,39.2,32.3,28.4,0000.0,0007.53,0003.97,0003.43
2022-07-08 11:35:00,,0833.0,5.00,0.00,30.4,29.3,00.0,39.2,32.3,28.4,0000.0,0007.45,0003.99,0003.45
2022-07-08 11:36:00,,0833.0,5.00,0.00,30.5,29.3,00.0,39.3,32.3,28.3,0000.0,0007.43,0004.00,0003.47
2022-07-08 11:37:00,,0833.0,5.00,0.00,30.5,29.3,00.0,39.3,32.3,28.3,0000.0,0007.48,0004.00,0003.50
2022-07-08 11:38:00,,0833.0,5.01,0.00,30.5,29.4,00.0,39.3,32.3,28.3,0000.0,0007.49,0004.00,0003.51
2022-07-08 11:39:00,,0833.0,5.00,0.00,30.5,29.1,00.0,39.2,32.3,28.3,0000.0,0007.48,0003.99,0003.54
2022-07-08 11:40:00,,0833.0,4.99,0.00,30.5,28.3,00.0,39.2,32.2,28.4,0000.0,0007.45,0004.01,0003.55
2022-07-08 11:41:00,,0832.9,4.99,0.00,30.4,27.7,00.0,39.1,32.1,28.4,0000.0,0007.47,0004.04,0003.57
2022-07-08 11:42:00,,0833.0,5.00,0.00,30.3,27.6,00.0,39.1,31.9,28.6,0000.0,0007.51,0004.06,0003.58
2022-07-08 11:43:00,,0833.0,5.01,0.00,30.2,27.6,00.0,39.1,31.9,28.7,0000.0,0007.66,0004.07,0003.59
2022-07-08 11:44:00,,0833.0,5.01,0.00,30.1,27.7,00.0,39.0,31.8,28.9,0000.0,0007.78,0004.08,0003.60
2022-07-08 11:45:00,,0833.0,5.00,0.00,30.1,27.9,00.0,39.0,31.8,28.9,0000.0,0007.81,0004.11,0003.61
2022-07-08 11:46:00,,0833.0,5.00,0.00,30.1,28.0,00.0,39.0,31.8,29.1,0000.0,0007.88,0004.13,0003.63
2022-07-08 11:47:00,,0833.0,5.00,0.00,30.1,28.1,00.0,39.0,31.8,29.2,0000.0,0007.93,0004.16,0003.65
2022-07-08 11:48:00,,0833.0,5.00,0.00,30.0,28.2,00.0,39.0,31.8,29.5,0000.0,0007.80,0004.20,0003.68
2022-07-08 11:49:00,,0833.1,4.99,0.00,30.0,28.3,00.0,38.9,31.8,29.7,0000.0,0007.88,0004.26,0003.69
2022-07-08 11:50:00,,0833.1,4.99,0.00,30.0,28.4,00.0,38.9,31.9,29.8,0000.0,0007.87,0004.28,0003.71
2022-07-08 11:51:00,,0833.2,5.01,0.00,30.0,28.5,00.0,38.9,31.9,29.7,0000.0,0007.88,0004.29,0003.71
2022-07-08 11:52:00,,0833.1,5.00,0.00,30.0,28.6,00.0,38.9,31.9,29.7,0000.0,0007.90,0004.30,0003.72
2022-07-08 11:53:00,,0833.1,5.00,0.00,30.0,28.7,00.0,38.9,31.9,29.7,0000.0,0007.91,0004.31,0003.75
2022-07-08 11:54:00,,0833.1,5.01,0.00,30.1,28.7,00.0,38.9,31.9,29.6,0000.0,0007.81,0004.33,0003.76
2022-07-08 11:55:00,,0833.1,5.00,0.00,30.1,28.8,00.0,38.9,31.9,29.6,0000.0,0007.85,0004.34,0003.78
2022-07-08 11:56:00,,0833.1,4.99,0.00,30.1,28.8,00.0,38.9,32.0,29.6,0000.0,0008.05,0004.39,0003.80
2022-07-08 11:57:00,,0833.1,4.99,0.00,30.1,28.8,00.0,38.9,32.0,29.7,0000.0,0008.05,0004.41,0003.80
2022-07-08 11:58:00,,0833.1,5.00,0.00,30.1,28.9,00.0,38.9,32.0,29.9,0000.0,0008.05,0004.41,0003.81
2022-07-08 11:59:00,,0833.1,5.01,0.00,30.1,28.9,00.0,38.9,32.0,30.1,0000.0,0008.11,0004.42,0003.82
